Overview Statistics Trail Chart Weather Telemetry Raw packets
 

This is the latest recevied weather packets stored in our database for station/object N5CSU. If no packets are shown the sender has not sent any weather packets the latest 10 day(s).

<< 1 2 3 4 >>
Time Temp. Humidity Pressure Rain* Wind** Luminosity Snow
1788631452 36.11° C 44% 1014.2 hPa 0 mm - 216 W/m² -
1788631147 35.56° C 45% 1014.1 hPa 0 mm - 391 W/m² -
1788630846 35.56° C 46% 1014.2 hPa 0 mm - 477 W/m² -
1788630542 36.11° C 45% 1014.3 hPa 0 mm - 287 W/m² -
1788630238 36.11° C 45% 1014.3 hPa 0 mm - 130 W/m² -
1788629933 36.11° C 47% 1014.5 hPa 0 mm - 401 W/m² -
1788629629 35.56° C 46% 1014.6 hPa 0 mm - 358 W/m² -
1788629324 35.56° C 47% 1014.5 hPa 0 mm - 43 W/m² -
1788629022 35° C 48% 1014.7 hPa 0 mm - 256 W/m² -
1788628718 35° C 47% 1014.6 hPa 0 mm - 103 W/m² -
1788628415 35.56° C 50% 1014.8 hPa 0 mm - 178 W/m² -
1788628111 35° C 48% 1014.8 hPa 0 mm - 146 W/m² -
1788627807 35° C 50% 1014.7 hPa 0 mm - 184 W/m² -
1788627506 35° C 51% 1015 hPa 0 mm - 205 W/m² -
1788627201 35° C 50% 1014.9 hPa 0 mm - 257 W/m² -
1788626901 35° C 50% 1014.9 hPa 0 mm - 285 W/m² -
1788626595 34.44° C 51% 1014.9 hPa 0 mm - 355 W/m² -
1788626291 35.56° C 49% 1015.1 hPa 0 mm - 328 W/m² -
1788625987 34.44° C 51% 1015 hPa 0 mm - 443 W/m² -
1788625684 34.44° C 52% 1015 hPa 0 mm - 323 W/m² -
1788625382 34.44° C 53% 1015.1 hPa 0 mm - 304 W/m² -
1788625077 34.44° C 52% 1015 hPa 0 mm - 293 W/m² -
1788624776 33.33° C 54% 1015 hPa 0 mm - 406 W/m² -
1788624475 33.89° C 55% 1015.1 hPa 0 mm - 431 W/m² -
1788624169 33.33° C 55% 1015.2 hPa 0 mm - 198 W/m² -

* Rain latest hour (hover to see other rain measurements)
** Current wind speed in m/s (hover to see current wind gust speed)